Вернуться в каталог

SL-8 DEB *

АктивенLEO
NORAD 18519·DEBRIS·🇷🇺 Russia

Запущен Feb 21, 1984 с Plesetsk Cosmodrome

Loading…

Ближайшие Пролёты (ближайшие 24 часа)

TLE

СвежийSource: Space-Track

Эпоха: Sep 14, 2026, 09:34 UTC

1 18519U 84019D   26257.39875374  .00001617  00000-0  25557-3 0  9996
2 18519  74.0402 128.6651 0008168 139.9945 220.1831 14.73175569 74281

Отслеживайте SL-8 DEB * в реальном времени с AllMySat

Download on the App Store